Location: Chicoutimi
(48.4330°N, 71.0670°W)
Time: 10:26:01
(UTC-05:00)

ISS - Visible Passes

Search period start: 09 December 2016 00:00
Search period end: 19 December 2016 00:00
Orbit: 401 x 409 km, 51.6° (Epoch: 09 December)

Date Brightness Start Highest point End Pass type
(mag) Time Alt. Az. Time Alt. Az. Time Alt. Az.
09 Dec -2.8 17:23:48 10° W 17:27:00 47° N 17:28:02 34° NE visible
09 Dec 0.1 19:00:31 10° WNW 19:00:42 11° WNW 19:00:42 11° WNW visible
10 Dec -3.0 16:31:42 10° W 16:34:56 54° NNW 16:38:07 11° ENE visible
10 Dec -2.0 18:08:31 10° WNW 18:10:48 36° NW 18:10:48 36° NW visible
11 Dec -2.8 17:16:28 10° WNW 17:19:41 46° N 17:20:55 30° ENE visible
11 Dec -0.1 18:53:04 10° WNW 18:53:36 14° WNW 18:53:36 14° WNW visible
12 Dec -2.8 16:24:22 10° W 16:27:35 46° N 16:30:47 10° ENE visible
12 Dec -2.7 18:01:04 10° WNW 18:03:45 52° NW 18:03:45 52° NW visible
13 Dec -3.1 17:09:03 10° WNW 17:12:18 53° N 17:13:58 25° ENE visible
13 Dec -0.5 18:45:36 10° WNW 18:46:38 18° W 18:46:38 18° W visible
14 Dec -3.3 17:53:32 10° WNW 17:56:51 77° SSW 17:56:57 76° S visible
15 Dec -3.4 17:01:30 10° WNW 17:04:48 75° NNE 17:07:23 16° ESE visible
15 Dec -0.8 18:38:17 10° W 18:40:05 22° WSW 18:40:05 22° WSW visible
16 Dec -2.2 17:46:02 10° WNW 17:49:12 41° SSW 17:50:41 25° SSE visible
17 Dec -2.9 16:53:56 10° WNW 16:57:13 66° SSW 17:00:29 10° SE visible
17 Dec -0.3 18:31:31 10° WSW 18:33:12 13° SW 18:34:16 12° SSW visible
18 Dec -0.8 17:38:45 10° W 17:41:22 22° SW 17:43:58 10° SSE visible
